Regional Weather Roundup
Issued by NWS Kansas City/Pleasant Hill, MO

Home | Current Version | Previous Version | Text Only | Print | Product List | Glossary On
Versions: 1 2 3 4 5 6 7 8 9 10 11 12 13 14 15 16 17 18 19 20 21 22 23 24 25 26 27 28 29 30 31 32 33 34 35 36 37 38 39 40 41 42 43 44 45 46 47 48 49 50
522
ASUS43 KEAX 300310
RWREAX

WEATHER ROUNDUP FOR EASTERN KANSAS AND NORTHWEST MISSOURI
NATIONAL WEATHER SERVICE KANSAS CITY/PLEASANT HILL MO
1000 PM CDT FRI JUL 29 2016

KSZ040-057-103>105-MOZ028-029-037-043-300400-
...KANSAS CITY METROPOLITAN AREA...

CITY           SKY/WX    TMP DP  RH WIND       PRES   REMARKS
K.C. INTL      CLEAR     71  61  70 N7        30.00R
K.C. DOWNTOWN  CLEAR     76  63  64 N5        29.98R
LEES SUMMIT    CLEAR     75  63  66 N6        29.99R
OLATHE - IXD   CLEAR     71  65  81 N7        30.00R
OLATHE - OJC   CLEAR     76  62  62 N7        29.99R
LAWRENCE       CLEAR     71  65  81 NE7       29.99R

$$

MOZ001>008-011>017-020>025-030>033-038>040-044>046-053-054-300400-
...NORTHERN AND CENTRAL MISSOURI...

CITY           SKY/WX    TMP DP  RH WIND       PRES   REMARKS
ST. JOSEPH     CLEAR     68  62  81 CALM      30.00R
MOSBY          CLEAR     70  64  83 CALM      29.98R
WHITEMAN AFB   PTCLDY    72  69  89 NE2       29.97R
CLINTON        CLEAR     72  68  88 CALM      29.98R
SEDALIA        CLEAR     75  67  76 CALM      29.99R
WARSAW         NOT AVBL
CHILLICOTHE      N/A     73  65  75 N3        30.00R
KIRKSVILLE     CLEAR     69  63  81 N8        29.99R

$$

MOZ041-047>049-056>058-063>065-088>090-097-300400-
...EASTERN AND SOUTHERN MISSOURI...

CITY           SKY/WX    TMP DP  RH WIND       PRES   REMARKS
ST. LOUIS INTL PTCLDY    78  67  68 N3        29.94R
SPIRIT OF STL  CLEAR     73  69  87 CALM      29.93R
COLUMBIA       CLEAR     73  65  75 NE5       29.97R
JEFFERSON CITY CLEAR     74  68  81 NW3       29.95R
ROLLA          CLEAR     72  69  90 CALM      29.96R
OSAGE BEACH    MOCLDY    72  71  97 CALM      29.98R
SPRINGFIELD    CLEAR     74  69  85 E3        29.99R
BRANSON        CLOUDY    73  72  94 CALM      30.01R
JOPLIN         CLEAR     75  70  84 CALM      29.98R
WEST PLAINS    CLOUDY    71  67  87 CALM      30.01R

$$

IAZ060-094-KSZ022-034>040-054-083-096-NEZ052-066-093-300400-
...KANSAS...SOUTHEAST NEBRASKA AND IOWA...

CITY           SKY/WX    TMP DP  RH WIND       PRES   REMARKS
TOPEKA         CLEAR     74  65  73 NE6       29.99R
MANHATTAN      CLEAR     74  66  76 N3        29.99R
EMPORIA        CLEAR     76  68  76 NE5       30.00R
CHANUTE        CLEAR     77  70  79 NE5       29.97R
WICHITA        PTCLDY    79  68  69 SE5       29.99R
OMAHA          PTCLDY    72  62  71 E8        30.03R
LINCOLN        CLEAR     72  62  71 NE6       30.03R
FALLS CITY     CLEAR     69  65  86 CALM      30.00R
LAMONI         CLOUDY    68  64  87 N7        30.01R
DES MOINES     MOCLDY    68  64  87 NW5       30.00R

$$





USA.gov is the U.S. government's official web portal to all federal, state and local government web resources and services.